ECMWFFLT1_sfc_thetae_066.txt.gz
Theta_e
271 271 271 271 272 272 271 271 271 272 272 272 271 271 271 272 271 271 271 272 271 272 271 271 271 271 272 273 272 273 274 273 273 272 272 273 272 271 271 270 268 266 267 270 273 272 272 273 274 273 274 274 275 276 277 278 279 279 279 279 279 280 281
270 271 271 271 271 271 271 271 271 272 272 271 270 271 271 270 270 270 270 271 271 271 271 271 270 270 271 271 270 271 272 273 273 273 272 272 271 271 270 271 269 268 267 266 270 271 272 272 273 272 275 274 274 274 276 277 277 278 279 279 279 280 280
270 270 270 270 270 271 271 271 271 271 271 270 270 270 270 270 270 270 270 270 270 271 271 270 270 270 270 271 270 270 270 271 271 271 271 270 271 270 271 272 271 269 267 267 268 271 271 271 272 272 272 273 274 275 276 275 276 277 278 279 279 280 280
270 270 270 269 270 270 270 270 270 270 271 270 270 269 269 269 269 269 269 270 270 271 270 270 269 270 270 270 269 269 270 270 270 270 270 270 270 270 270 271 271 271 269 268 267 269 270 271 271 271 273 273 274 274 274 274 275 277 277 278 279 279 279
270 269 269 269 269 269 269 270 270 270 270 270 270 269 269 268 268 268 268 269 270 271 270 270 270 270 270 270 269 269 269 269 269 269 270 269 270 270 270 271 271 271 270 269 267 268 270 271 271 272 272 273 272 273 274 275 275 275 276 277 278 278 279
269 269 269 269 269 269 269 269 269 269 269 269 269 269 269 268 268 268 268 268 268 269 270 270 270 270 270 270 269 269 269 269 269 269 269 269 269 270 270 270 270 270 270 269 269 269 268 270 269 270 270 271 272 272 271 273 274 275 276 276 276 277 278
268 269 269 269 269 269 269 269 269 269 269 269 269 268 267 267 267 268 268 268 268 269 269 269 269 269 270 269 269 269 269 269 268 268 268 268 268 269 269 269 269 269 269 269 268 268 269 269 270 271 269 271 272 272 272 271 271 271 274 276 276 275 277
268 269 269 269 268 268 269 268 268 269 269 268 268 267 267 267 266 267 267 268 268 269 269 269 269 269 269 269 269 269 269 269 268 269 268 269 269 269 268 268 269 268 268 268 268 268 268 269 269 270 271 272 272 270 270 272 271 270 271 273 275 276 276
268 268 268 268 268 268 268 268 267 268 268 267 267 266 266 266 266 266 266 267 267 268 269 269 269 269 269 270 271 271 271 270 270 269 268 269 269 268 268 268 268 268 268 268 268 268 269 269 269 269 269 269 269 268 268 271 272 271 272 273 274 275 277
268 268 267 267 267 267 267 267 267 268 270 269 267 266 265 266 266 266 266 266 267 268 268 268 268 269 270 270 271 271 271 272 272 272 270 270 269 269 268 268 267 268 268 268 267 268 268 267 267 268 269 269 270 272 272 271 272 270 272 273 272 273 275
267 267 267 266 266 266 266 266 267 269 270 271 271 267 265 265 265 266 266 266 266 267 267 268 268 268 269 269 270 270 271 272 273 273 273 273 272 272 269 268 267 267 268 268 268 268 268 268 268 269 270 270 270 271 271 271 271 271 271 270 270 269 273
266 266 266 266 266 265 265 266 268 269 270 271 271 271 267 265 265 265 265 265 266 266 267 267 267 268 268 268 269 269 270 271 272 273 274 274 274 274 274 273 270 269 268 268 268 268 268 268 268 269 270 270 270 271 271 271 271 271 270 270 270 271 271
266 266 266 265 265 265 265 265 268 270 270 271 271 271 270 268 266 266 266 266 266 266 266 267 267 268 268 269 270 270 269 269 270 272 274 274 275 275 275 275 275 274 271 271 269 269 269 269 270 269 270 271 271 272 270 271 271 270 271 270 270 271 272
265 265 265 265 264 264 264 264 267 269 270 271 271 271 271 269 268 266 266 267 267 267 267 267 267 268 268 269 270 270 270 270 270 270 271 272 272 273 274 276 277 276 275 273 271 270 269 271 271 270 271 272 272 271 270 270 270 271 271 270 270 272 272
265 265 264 264 264 264 263 264 267 268 269 270 271 271 271 269 268 268 268 267 268 268 268 268 268 268 269 270 271 271 271 271 271 271 271 271 271 272 273 274 274 275 275 274 273 272 272 272 273 272 273 273 272 271 272 272 272 272 272 272 273 273 274
265 264 264 264 263 263 263 263 267 268 269 270 270 271 268 268 268 268 268 268 269 269 269 270 270 270 270 270 271 273 275 274 273 272 271 271 271 272 273 273 276 277 278 277 275 273 273 273 274 275 273 273 273 272 272 272 273 273 272 272 271 269 272
264 264 264 263 263 262 262 262 265 268 269 270 270 270 267 267 267 267 268 268 269 269 270 270 271 271 271 272 272 274 276 277 276 272 271 271 271 272 272 273 274 277 279 279 279 279 278 277 277 278 278 278 277 274 273 272 270 270 271 270 269 270 271
264 264 264 263 263 262 262 262 264 267 268 269 270 269 267 267 267 267 267 268 269 269 270 271 272 273 272 272 273 275 276 277 277 275 273 272 271 271 271 272 273 273 275 278 279 280 280 279 279 278 279 279 279 278 276 272 269 271 272 270 270 270 271
263 263 263 263 262 264 262 262 263 266 267 268 269 268 267 267 266 266 267 268 268 270 270 271 273 273 273 273 274 276 277 278 278 276 275 274 272 271 271 273 274 273 273 273 273 275 276 277 278 278 278 277 278 279 278 274 273 273 272 270 271 271 271
263 262 262 263 262 262 262 262 262 263 266 267 269 270 268 267 266 266 267 268 268 269 270 271 272 274 275 276 277 277 278 278 278 277 276 275 273 272 272 275 274 274 274 273 273 273 274 275 276 277 278 278 278 278 278 277 275 274 274 272 272 272 272
262 262 262 262 262 261 261 261 261 262 265 267 268 269 270 267 267 267 267 268 268 269 270 271 272 273 275 276 277 278 278 278 278 278 277 276 275 275 276 277 276 276 276 275 274 273 273 274 274 275 276 277 277 278 278 278 277 275 275 274 273 273 273
261 261 260 261 261 261 261 261 261 261 263 266 268 269 270 268 268 268 268 268 269 270 271 272 273 274 276 277 277 278 278 278 278 278 277 277 278 278 279 278 278 278 277 276 275 275 274 273 273 274 274 275 276 277 277 278 278 278 276 276 276 275 273
260 259 259 260 260 260 260 260 261 262 261 264 267 268 270 271 270 271 270 269 269 270 271 273 274 275 276 276 277 277 277 277 278 277 277 278 278 278 279 279 278 278 277 276 275 274 273 273 273 273 274 275 275 276 277 277 278 278 278 277 277 277 277
259 259 258 258 259 259 260 260 260 261 263 263 266 268 270 271 272 272 270 270 270 271 272 273 274 275 276 276 276 277 277 277 277 277 277 278 278 278 278 278 277 276 276 276 275 274 274 274 274 274 274 275 276 277 277 276 277 277 278 278 277 277 277
259 258 258 258 258 258 259 260 260 260 262 264 265 268 269 271 272 273 273 271 272 273 273 274 275 275 275 276 276 276 276 276 276 277 277 277 277 278 277 276 276 275 275 274 274 275 275 275 276 276 276 277 277 277 277 276 276 276 277 278 278 278 277
259 258 258 258 258 258 260 260 261 262 263 265 266 267 269 271 272 272 273 273 273 274 274 275 275 275 275 275 275 275 275 275 275 276 276 277 277 276 276 275 275 275 274 274 274 274 274 276 277 277 277 277 277 275 274 275 274 274 274 275 275 275 276
258 258 258 257 258 259 260 260 261 263 264 264 265 266 268 269 271 273 273 272 273 273 273 273 274 274 274 275 275 275 275 275 275 275 275 274 274 274 274 274 274 274 274 274 274 274 274 276 277 278 277 276 274 274 274 275 274 274 274 274 274 274 273
258 258 258 258 259 259 260 261 262 263 264 265 266 267 268 269 270 270 270 271 271 272 272 272 273 273 273 273 273 273 273 273 274 273 273 273 273 272 272 273 274 274 274 274 274 274 274 275 275 275 276 275 275 275 275 275 274 274 274 274 273 272 272
259 259 260 260 260 260 260 261 262 264 267 267 269 268 269 269 269 270 270 271 272 271 271 271 271 271 271 271 271 270 271 271 271 271 271 270 271 271 272 272 272 272 272 272 272 272 272 273 274 274 275 276 275 275 275 276 274 274 274 274 274 272 273
260 260 260 260 261 262 262 263 265 268 269 270 270 271 271 271 271 271 271 271 272 272 270 269 269 269 269 269 269 269 269 269 270 270 270 270 271 270 271 271 271 271 271 271 271 271 271 272 272 273 273 274 275 275 276 276 275 274 274 273 273 272 273
266 266 264 261 261 262 265 266 267 269 270 271 271 271 272 272 272 272 272 272 271 270 269 269 268 268 269 269 269 269 269 269 268 268 269 269 269 269 269 269 269 269 269 269 270 270 271 271 271 271 272 273 273 274 275 276 276 275 274 273 273 273 273
267 267 267 266 264 263 263 265 267 268 270 271 272 272 272 272 272 272 272 272 272 269 269 269 269 268 268 268 268 267 267 267 267 266 266 266 267 267 267 267 267 266 266 268 268 269 269 269 270 270 271 271 272 272 273 275 275 275 274 274 274 274 274
267 267 268 268 268 268 266 266 267 269 270 271 271 271 271 271 271 271 271 271 269 268 268 268 268 267 266 266 266 266 265 265 265 264 264 264 265 265 264 263 261 261 264 266 267 267 268 268 268 269 269 270 270 270 271 273 274 275 275 274 274 274 275
268 268 268 269 270 270 270 270 270 270 271 271 271 271 270 270 269 270 270 268 266 267 266 266 266 266 265 265 265 265 264 264 264 263 262 262 262 262 261 260 260 263 265 265 265 266 266 266 267 268 268 269 269 269 270 270 271 273 274 274 274 274 275
263 266 268 267 268 270 271 271 271 270 270 270 270 270 270 269 267 265 265 265 264 264 265 265 265 265 264 264 263 263 263 263 262 263 262 261 261 261 261 261 262 264 264 264 264 265 265 265 265 266 266 267 267 268 269 269 270 270 272 273 274 275 275
262 261 264 267 268 269 270 271 271 270 269 270 269 268 268 265 265 264 263 263 263 263 262 262 263 263 264 264 264 263 262 262 262 262 262 261 260 260 260 261 262 262 262 261 263 264 263 263 263 264 265 266 266 266 267 268 268 269 270 270 271 272 273

ECMWFFLT1_sfc_thetae_069.txt.gz
Theta_e
273 273 273 273 273 273 273 273 273 273 273 273 272 272 273 273 273 272 272 273 273 273 273 272 272 272 273 274 273 273 273 273 273 273 273 273 273 272 273 273 271 268 268 271 273 272 272 273 274 273 274 273 274 275 276 277 277 278 278 278 279 279 281
273 272 272 272 272 272 272 272 272 273 273 272 272 272 272 272 272 272 272 272 272 272 272 272 272 272 272 273 272 272 272 273 273 273 272 272 272 272 272 274 271 270 268 268 271 271 273 272 273 271 274 273 273 273 275 275 275 276 277 278 278 278 279
273 272 272 272 272 272 272 272 272 272 272 272 272 272 272 272 272 272 271 271 271 272 272 271 271 271 272 273 272 272 272 273 274 274 273 273 273 272 273 274 272 271 268 268 269 271 271 271 272 271 272 273 273 274 274 274 275 275 277 278 278 278 279
272 272 272 271 271 271 271 271 272 272 272 272 272 272 272 272 272 272 271 271 271 271 271 271 271 271 272 272 271 271 272 272 273 273 273 273 273 273 273 273 273 272 270 269 268 270 270 271 271 271 272 273 273 273 273 273 274 275 275 276 277 277 278
272 272 271 271 271 271 271 271 271 271 271 272 272 272 272 271 271 271 271 271 271 271 271 271 271 271 271 271 270 270 270 271 271 271 272 271 272 272 272 272 272 272 271 269 268 269 271 271 271 272 272 273 271 272 272 273 274 274 275 275 276 277 279
272 271 271 271 271 271 271 271 271 271 271 271 272 272 271 271 271 271 270 270 271 271 271 271 271 271 271 271 270 270 270 270 270 270 270 270 271 271 271 271 271 271 271 270 269 269 269 271 270 270 271 271 271 270 270 271 272 274 275 275 275 276 277
271 271 271 271 271 271 271 271 271 271 271 271 271 271 270 270 270 270 270 270 270 270 270 271 271 271 272 271 270 270 270 270 270 270 269 270 270 271 270 270 270 270 270 269 269 269 270 270 271 271 270 272 272 272 271 270 270 270 273 274 274 274 277
271 271 271 271 271 271 271 270 270 270 270 270 270 270 270 270 269 269 269 269 269 269 269 270 271 271 271 271 271 271 270 270 269 270 269 270 270 270 269 269 269 269 269 269 269 269 269 270 270 270 271 272 272 270 270 271 270 268 270 271 274 275 275
271 270 270 270 270 270 270 270 270 270 270 269 269 270 269 269 269 269 268 268 268 269 269 269 269 270 271 271 272 272 272 272 271 270 269 269 270 269 269 269 269 269 269 269 268 268 269 269 269 269 270 270 269 269 268 270 271 270 271 271 272 274 276
270 270 270 269 269 270 270 269 269 270 272 272 269 269 269 269 269 268 268 267 267 268 268 268 269 269 271 271 271 272 272 273 273 273 271 270 269 269 268 268 268 268 269 268 268 268 268 268 268 269 270 270 271 272 272 271 270 269 270 271 271 272 274
270 269 269 269 269 269 269 269 269 272 273 273 273 270 268 268 268 268 267 267 267 267 267 268 268 269 270 270 271 271 272 272 273 273 273 273 273 272 269 268 268 268 269 269 268 269 269 268 268 269 271 271 271 272 271 270 271 270 270 269 268 267 272
269 269 269 269 269 268 268 268 270 272 273 273 274 273 269 267 267 267 267 267 266 267 267 267 268 268 269 269 269 270 270 271 272 273 274 274 274 273 273 273 270 268 268 268 268 268 269 269 268 269 270 270 271 271 271 271 271 270 270 269 269 270 269
269 268 269 268 268 267 268 268 271 272 273 273 274 274 272 267 266 266 266 266 266 266 266 267 267 268 268 268 270 270 269 269 270 272 273 273 273 273 274 274 274 274 271 270 269 269 269 269 270 269 270 271 272 272 271 271 271 271 270 270 270 270 271
268 268 268 268 267 267 267 267 270 272 273 273 273 274 273 269 266 266 266 266 266 266 266 267 267 267 267 268 268 269 268 268 269 269 270 271 271 272 273 274 275 275 275 274 271 270 269 271 271 271 272 273 273 271 270 270 270 271 271 270 270 271 272
267 267 267 267 267 267 266 266 270 272 272 273 273 273 273 270 269 267 266 267 267 267 267 267 267 267 267 268 268 268 269 268 268 268 269 270 271 271 272 272 273 273 274 273 273 272 271 272 273 273 274 274 274 273 272 272 272 272 272 272 273 273 273
268 267 266 267 266 266 265 266 271 271 272 272 273 273 270 269 269 268 268 267 267 267 268 268 268 267 267 268 268 270 272 271 269 268 268 268 269 271 272 272 275 276 277 275 275 274 273 273 274 276 274 275 274 273 273 273 273 273 272 271 270 268 271
267 267 267 266 266 265 265 265 269 271 272 272 272 271 269 268 268 268 267 268 268 268 268 268 268 268 268 268 268 270 273 274 273 268 268 268 269 270 270 271 273 276 278 279 279 279 279 278 278 278 278 278 278 275 274 273 271 270 270 269 268 269 270
267 267 267 266 265 265 265 265 267 270 271 272 272 271 268 268 267 267 267 267 268 268 269 269 270 270 269 269 269 272 273 275 274 270 269 269 269 269 269 271 273 273 275 279 279 280 280 280 279 279 279 279 279 279 277 272 269 270 271 269 269 269 270
266 266 267 266 265 266 265 265 266 269 270 271 272 270 268 268 267 266 266 266 267 268 268 269 270 271 271 270 271 273 274 275 275 272 271 271 270 270 270 271 273 273 272 273 274 275 276 277 278 278 278 278 279 279 278 274 272 272 271 270 270 270 271
266 265 266 266 265 265 265 264 264 266 269 270 271 271 268 267 266 265 265 266 266 266 267 268 269 270 273 274 274 274 275 276 276 274 274 273 271 271 271 273 274 274 273 273 273 273 274 275 276 276 277 278 277 277 278 276 274 274 273 272 271 271 271
266 265 265 265 265 264 264 264 264 264 268 269 270 271 270 267 266 266 266 266 266 267 267 268 268 269 271 273 275 275 276 276 277 277 275 275 274 274 275 276 274 274 276 274 274 274 274 274 274 275 276 276 277 277 277 277 276 274 275 273 272 272 272
265 264 264 264 264 264 263 264 264 263 266 268 269 270 270 267 267 267 266 266 266 267 268 268 270 270 272 274 275 276 277 277 278 278 276 276 278 279 278 276 276 275 275 275 275 274 274 274 274 274 274 275 276 276 277 278 277 275 275 275 275 274 273
263 263 262 262 263 263 263 263 263 264 263 266 268 269 270 270 269 270 268 266 266 267 268 269 270 271 273 274 276 276 277 277 278 278 277 278 279 279 279 278 277 277 276 275 275 274 274 274 274 273 274 274 275 276 277 277 278 277 276 276 276 277 276
262 262 261 261 261 262 262 262 262 263 265 264 266 268 269 270 271 271 268 268 267 268 269 269 270 272 274 276 276 277 277 277 277 277 278 278 278 277 278 277 276 276 276 276 275 274 274 274 274 274 274 274 275 276 276 277 277 278 278 276 276 276 277
262 261 261 261 260 261 261 262 262 262 263 265 265 267 268 269 271 271 271 268 269 269 270 272 274 274 275 276 277 277 277 277 277 278 277 277 277 277 276 276 276 276 276 275 274 274 275 275 275 275 275 276 276 277 278 277 277 277 278 278 277 277 277
262 261 261 260 261 261 261 262 262 262 262 263 264 265 267 269 269 269 270 271 270 271 272 273 274 275 275 275 275 275 275 275 275 277 277 277 277 276 276 276 275 275 275 274 274 275 274 275 276 277 277 277 277 276 276 276 276 275 275 276 276 276 276
261 261 260 260 261 261 261 261 262 262 262 263 263 264 265 266 267 269 270 270 270 271 271 271 273 274 275 275 275 275 276 275 276 275 275 275 275 275 275 276 275 275 274 274 274 274 275 275 276 277 277 277 276 275 276 276 275 275 274 275 275 275 274
261 261 260 260 261 261 261 261 261 262 262 263 264 265 266 266 266 267 268 268 270 270 271 271 273 273 273 273 273 274 274 274 274 274 274 274 275 275 275 275 276 276 275 275 275 275 275 275 275 275 275 276 276 275 275 276 275 274 274 274 274 273 272
262 261 262 262 261 260 260 261 261 262 266 265 267 266 266 266 267 268 269 270 272 271 272 272 272 271 271 272 271 271 272 272 273 273 273 273 273 273 273 272 272 272 272 273 273 273 273 273 273 273 274 275 275 275 275 276 275 275 274 274 274 272 272
263 263 263 262 262 263 262 262 264 267 268 268 269 270 269 270 271 271 271 272 273 272 270 270 270 270 270 270 270 270 270 271 271 271 271 271 272 272 271 271 271 272 272 273 272 272 272 272 272 272 273 273 274 275 275 276 275 274 274 273 272 272 272
268 267 265 263 262 263 265 265 266 267 269 270 270 271 271 272 272 272 272 273 271 270 269 269 268 269 269 269 270 269 270 270 270 270 270 270 270 271 271 271 271 271 271 271 271 271 271 271 271 272 272 272 273 274 275 275 275 275 274 273 273 272 272
268 268 268 267 265 264 263 265 266 267 269 270 271 272 272 272 272 273 273 273 272 269 269 269 269 268 268 269 269 269 269 270 270 270 270 270 269 270 270 270 270 270 269 269 269 269 270 270 270 271 271 271 272 273 273 274 275 274 274 273 274 273 273
268 268 268 269 269 268 267 266 267 268 269 270 271 272 272 273 273 273 273 273 270 269 268 269 269 269 269 269 268 269 269 269 269 268 268 269 268 268 268 266 262 263 265 268 269 269 269 270 270 270 270 271 271 271 271 272 272 274 274 274 273 273 274
268 268 269 269 269 269 269 269 269 269 270 271 271 272 272 271 270 272 272 271 269 269 268 268 268 268 268 268 268 267 267 267 266 266 265 265 265 265 263 261 260 263 265 267 267 268 268 268 268 268 268 269 270 270 271 271 271 272 273 273 273 273 273
263 266 268 267 268 269 270 270 270 270 270 271 271 271 271 271 268 267 267 267 266 266 267 266 266 266 266 266 266 266 266 265 265 264 264 264 263 263 262 262 263 264 265 266 266 266 266 266 266 266 267 268 268 269 269 269 270 271 271 271 273 273 273
263 263 265 268 269 269 270 271 271 271 271 271 271 270 270 267 266 266 265 265 265 265 265 265 265 265 265 266 265 265 264 264 265 264 263 263 262 262 262 262 264 264 264 264 265 265 265 264 264 265 265 265 266 265 265 267 268 269 270 270 270 272 274

ECMWFFLT1_sfc_thetae_075.txt.gz
Theta_e
277 276 275 275 275 274 274 273 274 274 273 272 272 273 273 273 273 273 273 273 273 273 273 273 272 273 274 274 273 273 273 273 272 272 272 272 271 270 270 269 268 267 267 269 271 271 271 271 271 270 271 270 270 270 270 275 273 273 273 274 274 274 277
277 277 276 275 275 275 274 274 274 274 273 272 272 272 273 273 273 272 272 272 272 273 273 273 272 272 273 274 273 273 273 273 272 271 271 271 271 271 270 271 269 268 267 267 268 269 271 270 271 270 271 270 270 269 271 270 271 272 272 273 273 274 275
277 277 276 275 275 274 274 274 274 274 273 273 272 272 272 273 272 272 272 271 272 272 273 272 272 272 273 273 273 273 273 273 272 272 271 270 271 270 271 270 270 269 267 267 268 268 268 269 270 269 270 270 270 270 271 270 269 270 271 272 272 273 274
276 276 276 275 275 274 274 274 273 273 273 272 272 272 272 272 272 272 272 272 272 272 272 272 272 272 272 273 272 272 272 272 272 271 271 270 270 270 270 271 270 270 268 268 267 267 268 269 268 269 270 270 270 270 270 270 269 269 269 270 272 272 273
275 275 275 274 274 274 274 273 273 273 272 272 272 272 272 272 272 272 272 272 272 273 272 272 271 272 272 272 272 272 271 272 271 271 271 270 271 270 271 271 270 270 269 268 267 268 268 269 268 269 270 270 268 268 269 268 268 269 269 270 270 271 273
272 273 273 274 274 274 274 273 273 273 272 271 272 272 272 272 272 272 272 272 272 272 272 272 271 272 272 272 271 271 271 271 271 271 270 270 270 270 271 270 270 269 269 268 268 268 268 267 268 268 268 269 269 268 267 266 267 266 267 268 269 270 272
268 269 270 272 273 273 273 273 273 272 271 271 271 271 271 271 271 271 271 271 271 272 272 272 272 272 272 272 272 271 271 271 271 271 270 270 270 270 270 270 269 269 268 268 268 267 268 268 267 267 267 268 269 269 268 267 265 265 266 266 268 268 270
266 267 268 268 269 272 273 273 273 272 271 271 271 270 270 271 271 271 271 271 271 271 271 272 272 272 272 272 272 272 271 271 271 271 270 271 270 269 268 268 268 267 268 267 267 267 266 266 267 267 268 268 268 266 266 268 266 264 266 267 266 268 269
265 265 265 266 267 268 270 272 272 272 272 271 270 270 270 271 271 271 270 270 271 271 271 271 272 272 272 272 273 273 273 273 273 271 270 270 270 269 268 268 267 267 266 266 266 266 265 266 265 266 266 266 264 264 265 267 267 265 265 266 267 268 269
263 264 264 265 266 267 268 270 272 273 275 275 272 271 270 271 271 271 270 270 270 270 271 271 271 271 273 273 273 273 274 274 274 274 272 270 270 269 268 268 267 266 266 266 265 265 265 264 264 265 266 266 267 267 267 266 267 265 266 265 263 267 267
263 263 264 264 265 265 267 268 270 273 275 276 277 274 272 271 270 270 270 270 270 269 270 270 271 270 272 272 273 273 274 274 274 275 275 275 273 272 269 268 267 267 267 266 266 266 265 265 265 266 267 267 267 267 267 267 267 267 264 263 262 261 266
261 262 262 263 265 266 267 268 271 274 275 276 276 276 272 272 271 270 270 270 270 270 270 270 270 270 270 270 270 271 271 272 274 274 275 275 275 275 275 273 269 268 267 267 266 265 265 265 265 265 264 265 265 266 266 267 266 264 264 262 262 264 262
260 260 262 263 263 264 266 266 271 273 274 275 276 276 275 272 271 270 270 269 269 269 269 269 269 269 269 269 271 271 270 270 270 273 274 274 275 275 275 275 275 274 270 268 267 266 266 266 266 264 265 267 266 266 265 264 263 262 263 263 264 265 264
260 261 261 262 263 264 265 267 270 273 274 275 275 276 275 272 271 271 270 269 269 269 269 269 268 268 268 268 269 269 269 269 269 269 270 270 271 272 273 275 275 275 275 273 268 267 266 267 267 266 266 266 268 267 265 264 264 263 264 265 266 266 266
259 259 260 261 262 263 265 266 271 273 274 274 275 276 275 271 271 271 270 269 269 269 269 269 269 268 268 268 268 268 269 268 268 268 268 269 269 270 272 272 272 273 273 273 271 269 268 267 267 268 267 267 268 268 268 267 267 268 269 269 266 264 264
259 259 260 261 261 261 262 264 270 272 274 274 275 275 272 271 271 270 269 269 269 269 269 269 268 268 268 268 268 269 272 271 269 268 267 267 268 268 270 271 274 275 275 274 273 271 270 269 267 271 268 268 268 268 267 267 269 270 270 268 267 266 262
258 259 259 260 261 261 262 264 269 272 273 273 274 273 271 270 270 269 268 268 268 268 268 268 268 268 267 267 267 269 272 273 272 268 267 267 267 267 267 268 271 275 277 277 277 277 276 275 275 275 276 276 276 272 268 268 268 268 269 267 266 266 264
258 259 260 261 261 263 264 265 268 271 272 273 274 273 270 269 269 267 268 268 268 268 268 268 270 269 267 267 267 271 272 273 271 269 268 267 266 266 266 267 269 270 272 277 278 278 277 277 276 276 276 277 277 277 275 269 268 267 267 268 268 265 263
259 259 261 261 262 264 264 264 267 270 272 273 273 272 270 269 269 266 267 266 266 267 267 267 269 270 268 267 268 272 273 273 271 269 269 267 266 265 265 266 267 268 269 271 272 273 274 275 276 275 274 275 276 277 277 273 271 270 269 267 267 266 262
259 259 260 261 262 263 264 264 265 267 271 272 272 273 270 269 268 266 266 266 266 265 266 267 267 269 271 272 272 272 273 273 273 270 269 268 266 265 265 267 267 268 268 270 271 271 272 273 275 275 275 275 275 275 276 275 273 271 271 269 268 267 265
258 259 260 261 263 264 264 265 265 266 271 271 272 272 272 269 268 268 266 266 266 266 265 266 266 267 269 272 272 273 273 273 274 273 270 269 267 267 268 269 267 267 269 269 270 270 270 270 272 274 274 275 274 274 275 276 274 273 272 271 269 267 267
258 259 260 262 263 263 263 265 266 266 268 270 271 271 272 269 268 269 267 266 266 266 266 266 266 266 268 270 272 273 274 274 274 274 271 270 273 273 273 269 268 268 268 269 270 269 269 269 270 271 272 273 274 274 275 276 275 274 273 273 272 270 268
258 258 259 261 262 263 263 264 264 266 266 268 270 270 271 271 270 271 269 267 266 266 266 267 267 268 269 271 272 273 273 274 274 274 272 274 275 274 273 271 269 268 268 268 269 269 268 269 269 270 271 272 272 272 272 272 274 274 274 274 274 273 273
258 258 259 260 261 262 262 263 263 265 266 266 268 269 270 271 271 271 269 268 267 267 267 267 267 267 271 272 272 273 273 273 273 272 274 275 275 274 273 271 270 269 268 268 268 268 269 269 270 270 271 271 272 272 270 270 271 273 274 274 273 273 274
258 258 259 260 260 261 262 262 262 262 264 266 266 269 269 270 270 270 270 268 267 267 267 268 270 271 271 272 272 273 273 272 272 274 274 274 274 274 273 272 270 270 270 269 269 269 270 270 271 272 272 272 273 273 270 270 272 274 275 274 274 273 273
258 259 259 259 260 261 261 262 262 261 262 263 265 265 267 268 268 268 269 270 268 269 269 270 271 271 271 270 270 270 270 270 271 272 273 273 274 273 273 272 271 272 271 270 270 271 271 272 273 273 273 273 273 272 272 273 273 274 274 274 273 272 272
258 258 258 259 260 261 261 261 261 261 261 261 261 262 263 263 263 265 266 267 268 269 268 269 269 269 270 270 270 270 271 271 272 272 272 272 273 273 273 273 273 272 272 272 272 272 273 273 274 274 273 272 272 272 272 273 273 273 274 274 274 273 272
258 258 259 259 260 261 261 261 261 261 261 261 261 261 261 261 262 262 262 263 266 268 268 268 269 269 269 269 269 269 270 270 270 271 272 272 273 273 274 274 275 275 274 274 274 274 274 274 274 273 273 272 271 271 271 272 273 273 273 274 274 272 272
259 260 261 262 262 261 260 260 260 261 264 263 264 263 261 261 261 261 262 264 267 268 268 267 267 266 267 267 267 268 268 269 270 270 272 272 273 273 273 273 273 273 273 273 273 273 273 273 273 273 273 273 271 271 271 272 273 274 273 272 273 272 273
261 263 264 264 264 263 261 261 262 266 268 269 268 269 268 266 266 266 264 265 266 268 267 266 265 266 266 266 267 267 268 269 270 270 271 272 273 273 273 273 273 273 272 272 272 272 272 272 273 273 273 272 272 273 273 274 274 273 274 273 272 272 272
267 268 267 266 264 265 266 267 267 267 269 270 270 270 270 270 270 269 269 268 266 266 266 266 265 266 266 267 267 268 268 269 270 271 271 271 272 272 272 272 271 271 272 271 271 271 271 271 271 271 272 272 273 273 273 273 274 273 273 271 270 271 271
267 267 267 267 267 266 265 265 267 268 269 270 270 270 270 271 271 271 271 270 269 265 266 266 266 266 266 267 267 268 269 269 270 270 270 270 269 269 270 270 270 270 270 270 270 269 269 269 270 270 270 270 271 272 273 273 273 272 272 270 269 271 272
266 267 268 269 269 268 269 268 267 268 269 270 271 271 271 271 271 272 272 271 267 265 265 266 266 266 266 267 267 268 268 269 269 269 269 269 268 267 266 267 267 269 269 268 268 268 267 268 268 269 269 269 269 268 267 269 272 273 272 271 271 271 272
265 266 266 267 268 269 269 270 270 271 271 271 271 272 272 271 270 272 272 270 266 266 265 266 266 267 267 267 267 266 266 266 267 267 267 266 265 263 263 263 265 267 266 265 265 265 264 265 266 267 267 266 266 267 266 266 268 270 271 271 271 271 269
258 262 263 262 264 267 269 269 270 271 272 272 272 272 271 270 265 264 264 265 265 265 265 265 265 265 265 265 265 264 264 264 264 265 264 264 263 262 263 263 264 264 264 264 263 263 262 263 264 264 265 265 265 266 266 267 268 269 269 271 272 271 270
257 259 261 262 263 264 267 268 269 270 270 271 271 270 268 262 262 262 262 262 263 263 263 263 263 263 263 263 263 264 263 263 263 262 262 262 262 262 262 262 263 263 263 262 263 262 262 262 261 262 263 262 264 264 266 267 269 268 268 269 270 271 271

ECMWFFLT1_sfc_thetae_078.txt.gz
Theta_e
266 266 266 266 267 268 269 271 272 274 275 275 274 275 274 274 274 273 273 273 272 273 272 272 271 271 272 273 272 273 273 273 273 274 274 274 273 272 272 272 270 268 268 270 272 272 271 272 271 270 271 271 270 270 270 274 272 272 272 272 272 273 276
265 265 265 265 265 266 267 268 270 272 274 274 274 274 274 274 273 273 273 272 271 271 272 272 271 271 272 272 272 272 272 273 273 273 273 273 272 272 271 272 270 269 269 268 271 270 272 272 271 270 271 270 270 270 271 270 271 271 271 271 271 271 272
264 264 264 264 264 265 265 266 267 269 271 272 273 273 274 274 274 273 272 272 271 271 271 271 271 271 272 272 271 272 272 272 272 273 272 272 273 272 272 272 271 270 268 268 269 272 270 270 271 270 270 270 271 270 271 270 269 270 270 272 271 271 272
263 263 263 263 263 264 264 264 265 266 268 270 272 273 273 274 274 273 272 272 271 271 271 271 270 271 271 272 271 271 271 272 272 272 272 272 272 272 272 272 272 271 270 269 269 271 270 271 270 269 270 270 271 270 270 270 269 268 269 270 271 271 271
262 262 262 262 263 263 263 263 263 263 263 265 267 270 272 273 273 273 272 272 271 272 271 271 271 271 272 272 271 271 271 271 271 271 272 272 272 272 272 272 272 271 271 270 269 270 271 270 270 270 270 270 268 268 267 267 267 268 268 269 270 270 271
261 262 261 262 262 262 261 262 262 263 263 264 266 267 269 271 272 273 272 272 271 271 271 271 271 271 271 272 271 271 271 271 271 271 271 271 271 272 272 271 271 271 271 270 270 270 270 269 269 268 268 269 268 268 267 265 266 265 265 266 267 269 270
260 261 261 260 260 261 261 262 262 263 263 264 265 265 266 268 270 271 272 272 272 272 271 271 271 271 271 271 271 271 271 271 271 271 271 271 271 271 271 271 270 271 270 269 269 269 270 270 269 269 268 268 269 268 268 267 264 264 265 265 266 267 269
259 260 260 260 260 261 261 261 262 262 262 263 263 264 266 267 270 271 271 272 272 272 271 271 271 271 271 271 272 271 271 271 271 271 271 271 271 271 271 270 270 270 269 269 269 268 268 269 269 268 268 268 267 266 266 267 266 264 265 266 265 265 267
259 259 259 259 260 260 260 260 260 261 261 262 264 265 266 267 269 270 270 271 271 271 271 271 271 271 271 272 273 274 274 273 273 271 270 271 271 271 270 270 270 269 269 268 268 268 269 268 268 268 268 266 265 265 266 267 267 265 265 266 266 267 267
259 258 258 258 258 259 259 259 260 262 267 268 266 266 268 268 268 269 270 271 271 271 271 270 270 271 272 273 273 274 274 274 274 274 273 271 271 271 270 269 269 268 268 268 267 267 268 267 267 267 268 267 267 267 267 266 266 264 266 264 263 266 265
257 257 257 257 257 257 258 259 260 265 268 269 270 268 267 268 269 270 270 270 270 270 270 270 270 270 271 273 273 273 274 274 275 275 275 275 274 273 271 269 268 268 268 267 267 268 268 267 267 268 268 268 268 267 267 266 266 266 263 262 261 261 265
256 256 257 257 257 258 258 258 263 267 268 269 270 270 267 268 269 269 270 270 270 270 270 270 270 270 271 271 272 272 272 273 274 274 274 275 275 275 275 275 271 269 268 268 267 267 267 267 267 268 268 267 266 266 266 266 265 264 263 263 261 263 261
256 256 256 257 256 257 257 258 264 267 268 269 270 271 270 268 269 269 269 270 270 270 270 270 270 270 270 270 272 272 272 271 272 273 274 274 275 275 276 276 276 275 271 270 269 268 268 268 268 267 267 268 267 267 265 264 263 263 263 264 264 264 264
255 256 256 256 256 256 257 258 263 267 269 268 268 270 270 267 268 269 269 270 270 271 271 270 270 269 269 270 270 271 271 271 271 271 271 272 272 272 273 274 276 276 275 274 270 269 268 269 269 268 269 268 269 266 265 264 264 263 262 263 265 267 267
255 255 256 256 256 256 257 258 265 268 266 267 269 271 271 268 269 269 269 270 271 271 271 270 270 270 269 269 269 270 271 270 270 269 269 270 270 270 271 271 272 272 273 273 272 270 270 270 270 270 269 268 269 268 268 267 266 266 267 268 267 264 262
255 255 255 256 256 256 257 258 266 265 265 268 269 271 268 267 267 267 268 269 270 271 271 270 270 269 269 269 269 270 274 272 270 269 268 268 268 269 269 270 272 274 275 274 273 272 271 271 270 272 269 268 267 268 267 266 267 266 267 267 265 266 261
255 255 255 256 256 257 257 258 263 266 268 269 270 269 266 267 267 267 268 269 270 270 270 270 270 269 269 269 269 270 274 274 273 268 267 267 267 267 268 268 270 274 276 276 277 276 276 276 275 276 276 275 275 270 268 265 264 266 267 265 265 265 264
255 255 256 256 256 257 258 258 262 266 268 269 270 270 267 267 267 267 268 268 269 270 270 270 271 271 269 269 268 272 274 274 272 268 267 266 266 265 265 266 268 269 271 275 276 276 277 277 277 276 276 276 276 276 273 266 265 265 265 265 266 265 262
255 255 256 256 257 259 259 259 261 266 267 269 270 268 267 267 267 267 267 268 268 269 269 269 271 271 270 269 270 273 274 274 272 269 268 267 266 265 264 266 267 267 267 268 269 269 272 274 276 275 274 274 276 276 275 270 269 268 267 265 265 267 265
255 255 255 256 257 258 259 259 260 262 267 268 269 270 267 267 266 266 267 267 267 267 268 268 269 271 273 273 273 273 274 274 274 270 268 268 266 265 265 267 267 267 267 268 268 269 270 272 273 274 274 273 273 274 275 273 271 271 269 267 267 267 266
254 255 255 257 257 258 259 260 260 262 267 268 269 270 269 266 266 266 267 266 266 266 266 267 267 268 271 273 273 273 273 274 274 273 269 268 267 267 268 270 267 268 269 267 268 268 269 269 270 271 273 273 273 273 273 274 273 273 272 270 269 268 267
255 255 255 256 257 258 259 261 262 262 266 267 268 269 270 267 266 268 267 266 266 266 266 266 267 267 270 272 273 273 274 274 274 274 271 269 272 273 273 270 268 267 268 267 267 267 267 268 269 269 270 272 273 273 273 273 274 274 273 273 272 271 268
254 255 255 256 258 259 260 260 261 263 263 266 268 269 269 270 268 270 269 267 265 266 266 267 267 267 270 271 273 274 273 273 274 273 271 274 274 274 273 271 268 267 266 266 266 266 266 268 268 268 268 270 272 273 274 274 274 274 274 273 274 274 273
255 255 256 256 257 258 259 260 261 263 264 264 267 269 269 269 270 270 268 267 266 267 267 266 266 267 271 272 273 273 273 273 273 272 273 274 274 273 273 271 268 267 266 266 266 266 266 267 268 268 268 269 271 272 273 273 274 275 274 274 273 274 274
256 256 256 257 257 258 259 260 261 262 263 265 266 268 269 269 269 269 268 266 267 268 267 268 270 271 272 272 272 273 273 272 272 273 273 273 273 273 271 271 268 267 266 265 265 266 266 267 268 268 269 270 271 272 272 270 270 273 274 274 274 274 274
256 256 257 257 258 258 260 261 262 262 262 264 264 265 266 267 267 266 266 266 266 268 270 271 271 271 271 271 271 270 270 269 270 272 272 272 272 271 271 271 269 268 267 266 266 266 267 268 269 269 270 271 271 271 270 270 270 271 273 273 272 272 272
256 257 257 258 259 260 261 262 263 263 262 262 261 261 262 262 262 264 265 263 263 265 268 269 270 270 270 270 271 271 271 270 271 270 270 270 270 271 271 271 270 269 268 267 267 267 268 269 270 271 271 270 271 270 271 271 272 272 272 273 272 271 271
257 257 258 259 261 262 262 263 263 263 262 262 261 261 261 260 261 260 259 260 261 263 266 268 270 270 269 269 268 268 268 268 268 269 269 269 269 269 271 272 272 272 270 270 269 269 270 271 271 271 271 271 271 271 272 272 272 272 272 273 272 271 270
258 260 261 262 262 262 261 262 263 264 267 265 266 263 261 260 260 260 260 262 264 265 267 267 266 266 266 265 265 265 266 266 267 267 268 269 270 269 270 271 271 270 270 271 271 270 271 271 272 272 272 272 271 271 272 273 272 273 272 273 273 271 271
260 262 263 262 263 263 263 263 266 270 271 270 269 270 269 267 266 266 263 264 266 266 265 265 265 265 265 265 265 265 266 267 267 267 268 268 270 270 270 270 271 271 271 271 272 272 272 272 272 272 272 271 271 271 271 272 273 272 273 272 272 271 272
265 265 264 263 262 264 266 267 269 270 271 270 270 270 270 270 270 270 269 267 265 264 264 265 264 264 264 265 265 265 266 266 267 268 268 268 269 271 271 271 271 271 272 272 272 272 272 273 272 272 272 271 271 271 271 272 273 273 273 272 272 272 272
262 264 262 264 264 263 263 266 268 269 272 271 271 271 271 270 271 271 271 270 268 263 263 265 264 264 264 265 265 266 266 266 267 268 269 269 269 270 271 271 271 272 272 272 272 272 272 272 272 272 272 272 272 272 272 272 272 272 272 272 272 272 272
265 266 266 266 266 266 264 265 267 268 271 271 271 272 272 272 272 271 271 271 266 263 264 265 265 265 265 265 265 265 266 267 268 268 269 270 270 270 270 271 271 272 272 271 271 271 271 272 272 272 272 272 272 272 271 272 272 272 272 271 270 269 270
263 264 264 265 266 266 267 266 268 268 269 270 271 271 271 271 270 272 271 268 264 263 263 264 264 264 264 264 265 265 266 267 267 268 269 268 268 268 268 269 270 270 270 270 271 270 269 270 270 271 271 271 271 271 271 272 272 272 271 270 269 269 269
255 259 261 260 261 263 264 266 266 267 268 269 269 268 268 267 262 262 262 263 263 263 263 263 264 264 264 264 264 264 265 266 266 266 266 265 265 266 267 268 268 268 268 267 268 268 268 268 269 269 269 269 269 269 269 269 270 271 271 271 270 270 269
254 256 259 260 261 261 262 263 264 265 266 267 267 266 263 258 258 259 259 259 260 261 262 262 262 263 263 263 263 263 263 264 264 264 264 265 265 265 265 266 266 266 266 266 266 265 266 266 266 266 266 266 266 266 267 267 268 267 268 270 270 271 270

ECMWFFLT1_sfc_thetae_081.txt.gz
Theta_e
263 262 262 261 261 261 261 262 262 263 263 263 263 264 264 265 266 267 268 271 273 274 274 274 273 273 274 273 272 273 273 272 272 272 272 272 272 272 273 272 271 269 269 271 273 273 273 272 273 272 273 272 272 272 272 275 273 273 272 272 272 272 275
262 262 261 261 261 261 261 261 261 262 263 262 262 262 262 262 263 264 265 269 270 272 273 274 273 273 273 273 272 273 272 272 272 271 271 272 272 272 272 273 271 270 269 268 271 271 273 272 272 272 273 271 272 272 272 271 271 271 271 271 271 271 271
261 261 261 260 260 260 260 261 261 261 261 261 260 260 260 261 261 262 263 264 267 270 272 273 273 273 273 273 272 272 272 272 271 271 271 271 272 272 272 273 273 271 269 269 269 272 271 272 271 271 272 272 273 273 273 271 270 270 270 271 271 271 271
260 260 260 259 259 260 260 260 260 260 260 260 260 260 260 261 261 262 262 263 264 265 268 270 272 272 273 272 272 271 271 271 271 271 271 271 271 272 272 273 273 273 271 270 269 271 271 272 271 271 273 273 273 272 271 271 270 269 268 269 270 271 270
260 259 259 259 259 259 259 259 259 259 260 260 261 261 261 261 262 262 262 263 263 264 265 267 270 272 273 272 271 271 271 271 270 270 271 271 271 271 272 273 273 272 272 271 270 270 271 272 271 272 272 272 271 270 269 268 268 269 269 269 269 270 271
259 259 258 258 258 258 258 259 259 259 259 260 260 260 260 260 261 262 262 263 263 263 263 265 267 271 272 272 271 271 271 270 270 270 270 270 271 271 272 272 272 272 272 271 271 270 270 271 270 269 269 271 271 270 268 268 267 265 265 266 266 268 269
258 258 258 258 258 258 258 258 258 258 259 259 259 259 259 259 259 260 260 261 262 263 263 264 265 267 271 272 272 271 270 270 270 270 269 270 270 271 271 271 271 272 271 271 270 270 271 270 270 270 269 270 271 270 270 269 267 266 266 267 267 267 268
257 258 258 257 257 258 258 258 258 258 258 258 258 258 258 259 259 260 261 262 263 264 265 266 267 269 269 271 272 272 271 271 270 270 269 270 270 271 271 271 271 271 271 270 270 270 269 270 269 270 271 270 269 268 267 268 268 267 267 266 267 267 267
257 257 256 257 257 257 257 257 257 257 257 257 258 259 260 260 261 262 262 263 264 265 266 266 266 267 268 270 273 273 273 273 273 271 270 270 271 271 271 271 271 271 270 270 270 269 270 269 268 269 269 267 267 266 267 268 268 267 267 267 267 267 267
256 256 256 256 256 256 256 256 256 258 263 265 262 262 262 263 263 263 263 263 264 265 267 267 268 268 269 270 271 272 273 274 274 274 273 271 271 271 271 271 270 270 270 270 269 268 269 268 268 268 269 268 268 269 270 268 267 266 267 266 264 266 267
255 255 255 255 255 255 255 256 256 263 266 267 268 265 263 263 263 264 264 264 264 264 265 266 268 268 269 270 271 271 273 274 274 274 274 274 274 274 272 270 270 270 270 269 269 269 268 268 267 268 269 269 270 269 269 268 267 267 265 264 262 262 266
254 255 255 255 255 255 255 255 260 265 266 267 268 265 262 263 263 263 264 264 265 265 265 266 267 268 269 270 271 271 271 272 273 273 274 274 274 275 276 275 272 270 269 269 268 268 268 268 268 268 268 268 269 268 268 268 267 265 265 264 263 264 263
254 254 254 254 254 254 255 255 261 264 266 267 264 264 263 262 263 263 263 264 265 265 266 266 266 267 268 269 271 271 271 271 271 272 273 274 274 274 276 276 277 276 272 271 269 269 268 268 268 267 268 269 269 270 267 267 265 264 265 265 265 265 265
254 254 254 254 254 254 255 255 260 264 266 263 262 263 265 262 263 264 265 265 265 266 266 267 267 267 267 269 270 270 270 270 270 270 270 271 272 272 273 274 276 275 276 274 271 269 268 269 269 268 269 270 272 269 267 266 264 265 264 265 265 268 268
253 253 254 254 254 254 254 255 263 264 263 263 267 264 267 264 264 265 265 266 266 266 266 267 267 267 268 269 269 270 270 269 269 270 270 270 270 271 271 272 272 273 274 274 272 271 270 270 270 270 271 271 271 270 270 269 267 266 266 266 266 266 263
254 253 253 254 254 254 254 255 263 260 260 262 263 266 263 263 263 263 264 264 265 266 266 267 267 267 268 269 270 271 273 273 270 269 269 269 269 270 271 271 274 275 275 274 274 272 272 271 271 273 271 271 270 270 270 269 266 266 265 265 263 264 261
253 254 253 254 254 254 254 255 260 263 259 263 265 265 261 263 263 264 264 264 265 266 267 267 267 268 268 269 269 271 274 274 274 269 269 269 269 269 269 269 270 275 277 277 277 276 276 276 276 277 277 276 276 272 270 267 265 264 266 265 263 263 262
253 253 254 254 254 254 254 255 259 265 264 263 265 264 262 262 263 263 264 264 265 266 267 268 269 270 269 269 269 273 274 275 274 270 269 269 268 268 267 268 268 269 272 275 277 276 276 276 277 277 277 277 277 276 273 267 265 265 266 265 265 264 262
253 253 254 254 254 256 256 256 259 265 265 264 263 263 261 262 262 263 264 264 265 266 267 267 269 270 270 270 270 274 275 276 274 271 269 268 268 267 267 268 268 267 267 268 269 270 271 271 273 275 274 274 276 276 274 269 268 267 266 265 265 264 262
253 252 253 254 255 255 256 257 258 260 266 266 265 265 263 262 263 263 263 264 264 264 265 267 267 269 271 273 274 274 275 276 275 271 269 268 267 266 266 268 268 268 268 268 268 268 269 269 271 272 273 274 274 274 274 270 270 268 268 266 266 266 266
252 253 253 254 255 256 257 258 258 260 267 266 266 267 267 263 263 264 264 263 264 264 265 266 267 269 271 272 274 274 275 275 275 274 269 269 267 267 268 270 267 268 270 267 267 267 268 268 269 270 271 273 273 273 273 271 271 270 270 268 266 267 267
252 252 253 254 256 257 258 259 260 260 265 268 267 267 269 266 264 266 264 264 264 265 265 266 267 267 269 272 273 274 275 275 275 275 270 269 272 273 273 270 267 267 268 267 266 266 266 267 268 268 269 270 272 272 273 273 271 271 270 270 269 269 267
252 252 253 254 256 257 258 259 260 263 263 266 269 268 268 270 268 269 267 265 265 265 265 266 266 267 270 271 273 274 275 275 275 274 271 274 274 274 273 271 268 267 267 266 266 265 265 266 266 267 268 269 270 272 272 272 272 272 272 272 271 271 270
252 253 254 254 255 257 258 260 261 263 265 265 268 269 269 270 270 270 267 266 264 265 266 266 267 267 271 272 273 274 274 274 274 272 273 274 274 273 272 270 267 267 266 266 265 265 264 264 266 267 267 268 269 271 272 272 273 273 273 273 272 272 272
253 253 254 255 256 257 259 260 262 263 265 266 267 270 269 269 269 268 268 265 263 265 266 268 270 271 272 272 273 273 273 273 273 274 273 273 273 273 271 269 267 266 266 265 265 264 265 265 266 267 268 269 270 271 273 273 272 274 273 273 273 273 273
254 254 255 256 257 258 259 261 262 263 264 265 266 267 267 268 267 267 267 266 265 266 267 269 270 271 271 271 271 270 270 269 270 272 273 273 272 271 270 269 267 266 265 264 265 265 265 265 267 267 268 269 270 270 270 271 271 272 272 272 272 272 272
254 255 255 256 257 259 261 261 262 262 263 264 265 263 263 263 263 265 265 263 262 264 263 265 268 269 270 270 271 271 271 271 271 270 270 269 270 270 270 269 268 267 265 265 265 265 266 266 267 269 269 268 268 268 270 271 271 270 271 272 272 271 270
255 255 256 257 258 260 260 260 261 261 262 264 266 262 261 261 261 261 259 259 260 259 262 264 268 269 269 269 268 268 267 267 267 268 268 267 268 268 270 270 270 270 267 267 267 266 267 267 268 268 268 268 268 268 269 270 270 270 270 272 272 270 269
255 256 257 258 259 259 259 260 260 261 265 266 269 264 261 260 261 261 260 262 264 263 264 265 266 266 266 266 266 265 265 266 265 265 265 266 265 266 266 267 269 268 267 267 267 266 267 267 268 268 269 268 268 268 269 270 270 271 271 272 272 270 270
256 257 258 259 260 261 260 260 261 266 268 269 271 271 271 269 267 266 263 264 265 266 264 265 264 264 264 264 263 263 264 265 265 265 264 265 268 268 267 267 268 269 268 269 268 268 268 268 268 268 269 269 268 269 270 271 271 270 271 270 270 269 270
260 260 260 260 259 261 263 263 264 264 266 268 270 271 271 272 271 270 268 267 265 264 263 264 263 263 263 263 263 264 264 265 266 266 266 265 266 268 269 269 269 269 270 269 269 269 269 269 270 269 270 269 269 269 270 271 271 271 271 271 271 270 270
256 256 257 261 261 261 260 262 263 264 265 267 269 270 270 272 272 271 270 268 268 263 263 264 263 262 262 263 263 264 265 265 265 266 266 267 267 267 269 269 269 270 270 270 270 269 269 270 270 271 270 270 270 271 270 271 271 271 271 271 271 271 271
261 263 263 263 263 264 262 262 262 264 265 266 266 268 267 269 270 269 268 267 264 262 263 264 264 262 262 263 263 264 264 265 265 266 266 267 268 268 268 270 270 271 271 270 270 271 271 271 271 271 271 271 271 271 270 271 271 271 271 272 271 271 271
260 260 259 260 262 263 265 265 265 265 265 265 267 267 266 265 263 267 267 263 259 260 260 262 263 264 264 264 264 264 265 265 266 266 267 267 268 269 269 270 271 271 270 270 271 271 271 271 271 272 271 271 271 271 271 271 271 271 271 271 271 271 270
252 255 256 255 257 259 261 262 262 263 264 265 265 264 263 262 256 256 257 258 258 258 258 258 259 259 260 261 261 262 263 264 265 265 266 267 268 269 269 270 270 270 270 270 271 271 271 271 271 271 271 271 271 270 270 270 271 271 271 270 270 270 269
251 252 254 256 256 257 259 261 261 261 262 264 264 263 259 254 254 254 255 255 256 256 257 257 257 258 258 259 259 260 260 261 262 263 264 266 267 267 268 268 268 268 268 268 269 269 269 270 270 271 271 271 271 271 271 271 271 271 270 270 269 270 269

ECMWFFLT1_sfc_thetae_084.txt.gz
Theta_e
261 261 260 260 260 260 260 260 260 260 260 260 260 260 260 260 261 260 260 261 261 262 262 262 263 264 266 268 270 272 273 274 274 274 274 274 273 273 273 272 271 269 268 271 271 272 272 272 272 272 273 273 273 272 274 278 274 274 274 274 274 273 277
260 260 260 259 259 259 259 259 259 260 260 259 259 259 260 259 260 259 259 260 260 261 261 261 261 262 263 265 267 270 271 273 274 274 273 273 273 272 272 273 271 270 269 268 271 270 273 272 273 272 273 272 272 272 272 273 274 273 273 273 272 272 272
260 259 259 259 259 259 259 259 259 259 259 258 258 258 258 259 259 259 259 259 260 260 261 261 261 261 262 263 263 265 268 272 273 274 273 273 273 272 273 273 273 271 269 269 269 271 271 271 272 272 272 272 273 273 273 272 272 272 271 272 272 271 271
259 259 258 258 258 258 258 258 258 258 258 258 258 258 258 259 259 259 259 259 259 260 260 260 261 261 262 262 262 263 265 268 271 273 273 273 273 272 272 273 272 272 271 270 269 270 271 272 271 272 272 273 272 272 272 272 272 271 270 271 271 271 271
259 258 258 258 257 257 257 258 258 258 258 258 258 258 258 258 258 258 258 258 258 259 259 259 259 260 261 261 261 261 262 263 266 270 272 272 272 272 272 272 272 272 272 270 269 270 271 272 272 272 273 273 271 271 270 270 270 270 270 269 270 270 271
258 258 257 257 257 257 257 257 257 257 257 257 257 258 258 257 257 257 257 257 258 258 258 258 258 259 259 259 259 260 261 262 263 266 270 272 272 272 272 271 271 271 271 271 270 270 270 271 270 271 272 273 272 271 269 268 268 267 267 268 267 268 268
257 257 257 257 257 257 257 257 257 257 257 257 257 257 256 256 257 257 257 257 258 258 258 259 259 259 259 259 260 260 261 261 262 264 267 271 272 272 272 271 271 271 271 270 270 270 270 270 271 271 270 272 272 272 271 269 268 267 267 266 267 267 268
257 257 257 256 256 256 256 256 256 256 256 256 256 256 256 256 256 257 257 258 258 259 259 260 260 260 261 261 261 262 262 262 262 263 264 268 271 272 271 271 271 271 270 270 269 269 269 270 270 271 272 273 271 270 269 270 269 267 267 266 267 268 269
256 256 255 256 256 256 256 256 255 256 256 255 256 256 257 257 258 258 258 259 259 260 260 261 262 262 263 264 265 266 266 266 267 266 266 267 269 271 271 271 271 270 270 269 269 269 270 270 270 270 271 270 269 268 268 269 269 268 269 268 268 268 268
256 255 255 254 255 255 255 255 255 256 262 264 260 260 261 261 262 262 262 262 262 262 263 263 263 264 265 265 266 266 267 268 268 269 268 267 268 270 271 270 270 270 270 269 269 269 269 269 269 270 270 270 270 270 271 269 268 267 267 266 267 268 268
254 254 254 254 254 254 254 254 255 261 264 265 267 264 262 262 262 262 262 261 261 261 262 262 263 263 264 265 265 265 266 267 268 269 269 270 270 271 270 270 269 269 270 269 269 269 269 269 269 270 271 271 271 271 269 268 268 267 267 265 265 264 265
253 253 254 254 253 253 253 254 258 264 265 266 267 263 260 261 261 260 260 260 260 260 261 261 261 262 263 263 264 264 265 266 267 268 269 270 271 272 274 274 271 270 269 269 269 268 269 269 269 270 271 270 271 269 269 269 268 267 266 265 265 266 265
254 253 253 253 253 253 253 253 260 263 265 264 264 264 261 260 260 260 260 260 261 261 261 262 262 262 263 264 266 266 266 266 266 268 269 269 270 271 273 274 274 275 272 271 270 269 268 269 270 270 270 271 270 271 268 268 267 267 267 267 266 265 265
253 253 252 253 252 253 253 253 259 263 265 262 264 264 265 261 261 261 261 261 261 261 262 262 262 263 263 264 265 265 266 266 266 267 267 267 268 268 270 272 274 274 274 274 271 270 269 270 271 270 271 271 272 270 268 268 266 267 267 266 266 267 268
252 252 252 252 253 252 253 253 261 265 263 263 264 264 266 262 261 261 260 261 261 261 261 262 263 263 263 264 264 265 266 266 266 266 267 267 267 268 268 269 270 271 271 272 272 272 271 271 272 272 272 271 272 271 271 270 269 268 268 268 268 267 266
252 252 252 253 252 252 252 253 262 264 261 262 266 266 262 262 261 261 261 260 261 261 262 262 263 263 263 264 264 266 269 269 267 267 266 266 267 267 268 269 272 274 274 273 272 273 273 272 273 275 272 272 271 271 271 271 270 269 268 267 265 265 263
252 252 252 252 252 252 252 253 258 264 264 260 267 265 262 262 262 261 261 261 261 261 262 262 263 263 263 263 264 266 270 271 271 267 267 267 267 267 268 268 270 274 277 277 277 277 277 277 277 277 278 277 277 273 271 269 267 266 267 265 264 264 262
252 252 252 252 252 253 252 253 258 264 266 264 262 263 262 262 262 261 261 261 261 262 262 262 265 265 264 264 265 269 270 272 270 267 267 268 267 266 266 267 269 270 272 276 277 277 278 278 277 277 278 278 278 277 275 269 267 267 267 265 265 263 263
251 251 252 252 253 255 254 254 257 263 265 268 267 265 263 262 262 261 262 262 262 262 262 263 264 266 266 266 267 271 272 272 270 268 268 268 268 267 266 268 269 269 269 270 271 272 273 274 275 275 275 275 276 277 275 271 270 269 267 266 265 264 261
251 251 251 252 253 253 254 254 255 258 266 266 266 266 263 264 263 263 263 263 263 262 262 263 263 265 267 270 271 271 272 272 273 269 269 269 268 267 267 269 270 270 269 268 269 269 269 270 271 273 274 274 274 275 274 271 271 270 268 267 266 265 265
250 251 251 252 253 254 254 256 256 258 266 268 267 266 267 264 264 264 264 264 263 263 262 262 263 263 266 268 271 272 273 273 273 273 271 270 268 269 270 272 269 269 271 268 268 268 268 269 269 269 270 272 273 273 274 272 271 270 270 269 267 265 265
250 251 251 252 253 254 255 257 259 258 264 267 267 266 269 266 265 266 265 264 263 263 262 263 263 263 265 267 271 272 273 274 274 274 271 271 274 274 275 271 269 268 269 268 267 267 267 267 267 267 268 269 270 272 273 272 271 270 270 270 269 268 267
250 250 251 252 254 255 256 257 258 261 261 265 268 268 269 269 268 271 268 265 263 263 263 264 264 265 267 269 271 272 273 273 274 273 272 275 275 275 274 272 268 267 268 267 266 265 265 265 265 266 267 268 268 270 272 271 271 270 270 270 270 271 271
250 251 251 252 253 254 256 257 258 261 262 263 267 268 268 269 271 271 267 266 264 264 264 263 263 265 269 271 272 273 273 273 273 272 274 275 275 273 273 270 267 266 266 266 265 265 264 263 264 265 266 267 269 270 272 272 271 271 270 270 270 271 271
251 251 252 252 253 254 256 257 259 260 262 263 264 268 270 270 269 270 269 266 264 264 263 265 269 270 271 272 272 272 272 272 272 273 273 273 273 273 271 268 267 266 265 265 264 264 264 264 265 266 267 269 269 271 272 272 271 271 271 270 271 270 271
251 252 252 253 254 255 256 257 259 260 261 262 263 264 267 270 269 269 269 268 266 267 268 268 269 269 269 269 270 270 269 269 270 272 273 273 273 271 270 268 266 266 265 264 265 265 265 265 266 266 267 269 270 270 270 271 271 270 270 270 270 269 269
252 252 253 253 254 255 256 257 258 259 260 261 262 263 265 267 265 266 267 265 262 263 261 262 264 265 267 269 270 270 271 270 271 269 269 270 271 270 269 268 267 266 265 265 265 265 265 266 266 267 268 267 268 268 270 271 271 271 270 271 270 270 269
252 252 253 253 254 255 256 257 258 259 260 261 262 263 265 266 264 261 260 260 260 258 260 262 264 266 267 268 267 267 267 267 267 267 267 267 268 269 269 269 269 269 267 266 266 266 266 266 266 266 266 267 267 268 269 270 271 271 270 271 271 269 268
253 254 255 255 255 255 255 256 257 259 262 262 264 264 264 265 263 261 261 263 265 264 262 263 265 265 264 264 265 264 263 263 264 264 264 266 266 267 268 268 268 267 266 266 266 265 265 265 266 266 267 267 267 267 268 270 270 271 271 271 271 269 269
253 255 256 255 255 256 255 256 258 263 264 265 263 265 265 265 268 269 265 266 267 267 264 264 264 264 264 263 262 262 262 262 262 262 262 264 268 266 266 267 268 268 267 267 266 266 266 266 266 266 267 266 266 267 268 269 270 269 271 270 270 269 269
258 258 257 256 255 256 259 260 261 262 262 264 265 265 267 267 267 267 266 266 263 261 261 263 263 263 263 263 262 262 262 263 264 264 263 263 264 265 267 267 267 268 268 268 267 267 267 267 267 266 267 267 267 267 267 268 269 269 270 270 270 269 269
256 256 256 257 257 256 255 258 261 262 262 263 265 263 266 266 266 266 265 263 262 258 258 259 259 259 260 261 262 263 263 263 263 264 264 264 264 264 266 267 267 269 269 268 267 267 267 267 267 267 268 268 267 268 267 267 268 268 269 269 270 269 270
258 258 256 256 257 256 254 256 261 262 265 264 262 265 262 263 264 265 263 260 257 256 256 256 257 257 258 258 259 260 262 264 263 264 264 265 266 265 266 267 268 269 269 268 268 268 267 268 268 269 268 269 268 268 267 267 268 268 269 269 269 269 270
256 257 256 258 260 260 258 262 263 264 264 265 265 264 262 260 258 262 263 258 255 255 254 255 255 256 256 256 258 258 259 260 262 264 266 266 266 267 267 268 268 268 268 269 269 269 268 269 268 269 269 269 269 270 269 268 268 269 268 268 269 269 269
248 252 254 253 254 255 257 258 259 260 261 261 261 261 260 259 253 253 253 254 254 254 254 254 254 254 255 255 256 257 258 258 259 260 262 264 265 266 267 268 268 268 269 269 269 269 269 269 269 270 270 270 269 269 269 269 269 269 269 269 269 270 270
247 249 252 253 253 254 256 257 257 258 260 262 262 261 257 251 251 251 252 252 253 253 254 254 254 254 254 254 255 256 256 257 258 258 260 263 265 266 267 268 269 268 268 269 270 269 270 270 270 271 270 270 270 270 269 270 270 270 270 271 271 271 270

ECMWFFLT1_sfc_thetae_090.txt.gz
Theta_e
265 265 265 265 264 265 264 264 264 265 264 264 263 264 264 264 264 263 263 264 263 264 264 263 263 263 264 265 264 264 265 265 265 266 266 266 266 266 267 267 266 266 266 270 274 274 276 278 279 278 279 279 280 280 280 282 281 282 282 282 282 282 283
265 265 264 265 264 264 264 264 264 264 264 264 263 263 263 263 263 262 262 262 262 263 263 262 262 262 263 264 263 263 263 264 264 264 264 265 265 265 265 268 266 266 266 266 271 272 275 275 278 277 279 278 278 279 280 280 280 281 281 281 282 282 282
264 264 264 263 263 263 263 264 263 263 263 262 262 261 262 262 262 262 261 261 261 262 262 261 261 261 262 262 262 262 262 263 262 263 263 263 264 264 266 267 267 265 264 264 266 270 272 273 275 276 277 278 279 279 279 279 279 279 280 281 281 281 281
263 264 263 263 263 263 263 262 262 262 262 261 261 261 261 261 261 261 261 260 260 261 260 260 260 260 261 261 260 261 261 262 262 262 262 263 263 264 264 265 266 266 265 264 264 267 269 272 272 274 277 278 278 278 278 278 279 279 279 279 280 280 280
264 263 262 262 262 262 262 262 262 261 261 261 261 261 261 260 260 260 260 260 260 260 260 260 259 260 260 260 260 260 261 261 261 262 262 262 263 263 264 264 265 265 266 264 263 265 268 269 271 273 274 276 276 277 278 278 277 278 278 278 279 280 280
262 262 261 261 261 261 261 261 261 261 260 260 260 260 260 259 259 259 259 259 259 260 260 259 259 260 260 260 259 260 261 261 261 261 261 261 262 262 263 263 263 264 264 263 264 265 265 268 268 269 272 274 276 275 276 276 277 278 278 277 277 278 279
261 261 261 261 261 260 260 260 260 260 260 260 260 259 258 258 258 259 259 259 259 260 260 260 260 260 260 260 260 260 260 260 260 260 260 261 261 262 262 262 262 263 262 263 262 263 265 266 267 269 268 272 275 276 276 275 275 274 277 277 277 276 278
260 260 260 260 260 260 260 259 259 259 259 258 258 258 257 258 257 258 258 259 259 260 260 260 260 260 260 261 261 261 261 261 260 261 261 262 262 262 262 261 262 262 262 262 262 263 263 265 266 268 269 271 273 273 274 275 275 273 274 275 276 276 276
259 259 258 259 259 258 258 258 257 257 257 257 257 257 257 257 257 258 258 258 259 260 260 260 261 261 261 261 262 263 263 263 263 261 261 262 262 262 262 262 262 262 262 262 262 262 264 264 265 267 267 268 270 271 272 274 276 274 274 275 275 276 277
258 258 257 257 257 257 257 256 257 258 260 262 257 259 259 260 260 259 259 259 259 260 261 261 261 262 263 263 263 264 264 264 265 265 264 262 263 262 262 262 262 262 262 262 262 262 263 263 263 266 267 267 270 273 274 274 274 273 274 274 274 275 276
256 256 256 256 256 255 255 256 256 260 263 258 262 261 260 260 260 261 261 261 261 262 262 263 263 263 264 264 264 264 265 265 266 266 267 267 266 266 263 262 261 262 262 262 262 263 263 263 263 265 268 269 270 271 272 273 274 274 273 272 271 270 274
256 256 256 256 255 255 255 255 258 261 261 258 261 263 260 261 261 261 262 262 262 262 262 262 263 263 263 263 263 263 263 264 265 266 266 267 267 268 269 268 265 263 263 263 262 263 263 263 263 265 267 267 269 270 272 273 273 273 272 272 272 271 271
255 255 255 255 254 254 254 254 259 262 262 257 260 262 261 261 262 262 262 262 262 262 262 262 263 263 263 264 265 265 264 263 263 265 265 266 266 267 268 270 270 270 267 266 264 263 263 264 264 264 265 267 268 270 270 272 272 273 273 273 272 272 273
255 255 254 254 254 254 254 254 257 262 260 259 265 264 262 261 261 261 261 262 262 262 262 263 263 263 263 264 264 264 264 264 264 264 264 264 264 264 265 267 269 268 268 268 266 265 264 265 266 265 266 268 269 268 268 270 271 273 272 272 272 274 275
254 254 254 254 254 254 253 254 259 262 261 262 263 263 262 261 261 261 261 262 262 262 262 263 263 263 263 264 264 265 265 264 264 264 263 263 263 263 264 264 264 265 265 266 266 266 266 266 267 267 268 268 269 269 269 270 271 273 273 274 275 275 275
254 254 253 254 254 253 253 254 261 261 259 262 261 262 260 260 260 260 261 262 263 263 263 264 264 264 264 264 264 266 269 269 266 264 263 263 263 263 264 264 267 269 269 267 266 266 266 267 268 270 268 269 269 270 270 270 270 272 272 272 271 270 273
254 254 254 253 253 253 253 253 257 260 259 260 263 262 260 259 260 261 261 262 263 264 264 265 265 265 265 265 265 266 270 271 269 266 265 263 263 263 263 264 265 269 271 270 271 271 272 272 272 272 273 274 274 271 271 270 269 268 270 270 269 270 271
254 254 254 253 253 253 253 253 257 259 258 259 264 261 259 260 260 260 261 262 263 264 265 265 266 267 266 266 266 270 271 272 269 266 266 265 263 262 262 263 265 265 266 271 271 271 273 272 272 274 274 274 274 275 274 269 267 269 271 269 270 269 270
253 253 253 253 253 255 254 254 256 261 259 260 263 259 260 261 261 260 261 262 263 264 265 266 267 268 268 267 269 271 271 270 269 267 267 266 265 263 263 264 265 265 264 265 265 266 267 268 270 270 270 270 272 273 273 271 270 271 270 269 270 270 270
253 252 252 253 253 253 254 254 255 256 262 259 263 262 260 261 260 260 261 262 263 264 265 266 267 268 270 272 272 272 272 273 273 270 268 267 265 264 264 266 266 266 266 266 266 266 267 267 268 268 269 269 270 271 271 272 272 272 271 271 271 271 270
252 252 252 253 254 254 255 255 255 256 262 258 259 262 262 260 260 261 262 262 263 264 264 265 265 267 269 271 271 272 272 273 273 272 270 267 266 266 267 269 267 267 268 266 267 267 267 268 268 268 269 270 270 270 271 272 272 273 273 272 272 271 270
251 252 252 253 254 255 255 256 257 256 260 264 261 257 260 261 262 263 263 263 263 263 263 264 265 266 268 269 271 272 272 273 273 273 270 270 271 271 272 269 269 268 268 268 267 267 267 267 268 268 269 269 270 271 272 272 272 273 274 274 274 273 271
251 252 252 253 255 256 256 256 257 258 258 261 262 261 259 262 262 265 264 263 262 262 263 264 264 266 268 269 271 272 273 273 273 272 271 273 273 273 273 271 270 269 268 268 268 268 267 267 268 268 268 270 270 271 272 273 273 274 274 274 274 275 275
252 252 252 253 254 255 256 257 257 258 259 258 262 262 261 263 265 266 264 263 263 263 263 263 263 265 268 270 271 271 272 272 271 270 272 273 273 271 271 271 271 270 269 269 268 268 268 268 269 269 269 270 271 272 272 273 274 274 274 273 273 274 275
252 252 253 253 253 254 255 257 257 257 258 259 259 263 263 263 266 265 264 263 263 263 262 263 266 267 268 269 270 270 271 271 271 272 271 271 272 272 272 271 271 270 270 269 268 268 269 269 270 270 271 271 272 273 273 273 273 274 274 273 273 274 274
252 253 253 253 254 254 255 256 256 256 257 258 259 259 261 264 263 263 264 264 262 262 263 264 265 264 264 265 265 266 268 268 269 270 271 271 271 271 271 271 271 271 270 269 269 269 269 270 271 271 272 272 272 272 272 273 273 273 273 270 271 271 271
252 252 253 253 254 255 255 255 255 256 256 257 257 257 259 260 261 262 263 262 260 261 260 261 261 262 263 263 263 264 265 266 267 268 269 270 270 270 270 270 271 271 271 270 270 270 270 271 271 272 272 271 271 271 272 273 273 272 270 271 271 270 270
252 252 252 253 254 254 254 253 254 255 255 256 256 257 259 260 260 261 261 260 259 259 259 259 261 261 260 260 260 261 261 262 263 264 266 267 268 269 270 270 271 270 270 271 271 271 271 271 271 270 270 270 270 270 271 273 272 272 271 271 271 270 269
252 253 254 254 254 253 252 253 253 255 257 256 258 258 259 259 259 260 260 260 260 258 258 258 258 258 258 258 258 258 258 259 259 260 262 263 265 267 269 270 270 269 270 271 271 270 269 269 269 269 269 269 269 270 271 272 272 272 271 271 271 269 269
254 254 255 254 254 254 253 253 255 256 254 253 256 257 259 258 258 260 261 260 259 258 256 256 256 256 256 256 256 256 256 257 257 258 259 261 263 265 268 269 269 270 270 270 270 270 269 269 269 268 268 269 269 269 270 271 272 271 272 270 269 269 270
257 256 256 255 253 255 257 256 256 256 256 256 256 260 260 258 263 261 261 259 256 255 255 254 254 255 255 255 255 255 255 255 256 256 257 258 260 263 266 268 269 269 269 270 270 270 269 269 269 268 269 268 268 268 269 270 271 272 271 270 270 269 269
255 256 257 257 255 255 253 255 255 256 256 254 256 257 261 260 261 260 261 258 257 254 253 254 254 254 254 254 254 254 255 255 255 255 256 257 258 260 263 266 268 270 269 269 269 269 269 269 269 269 268 268 268 268 268 269 269 270 270 270 271 270 270
257 256 255 258 257 258 256 254 253 254 256 256 257 257 259 260 259 258 258 257 254 253 252 253 253 253 253 253 253 254 254 254 254 254 255 256 257 258 260 263 266 269 269 269 269 269 269 269 269 269 268 268 268 268 267 268 268 269 270 270 270 270 270
254 255 253 254 255 257 257 258 257 257 256 257 259 261 260 256 255 258 258 255 252 252 252 252 252 252 253 253 253 253 253 253 253 254 254 255 256 257 259 262 265 268 269 269 269 269 269 269 269 269 268 268 268 268 268 268 268 268 269 269 270 269 270
249 251 252 250 250 252 252 252 253 254 255 256 258 258 257 256 252 251 251 252 252 252 252 252 252 252 252 253 253 253 253 253 253 253 253 254 255 256 258 260 263 267 269 269 269 269 269 269 269 269 269 268 268 267 267 267 267 268 269 269 270 270 270
248 249 250 251 251 251 251 251 252 253 254 258 259 258 254 250 250 250 250 250 251 251 252 252 252 252 252 252 252 253 253 253 252 253 253 254 254 255 256 257 259 261 264 269 269 269 269 269 269 269 269 269 268 268 268 268 268 268 269 270 270 270 270